| time (UTC) | temp F | wind direction | speed MPH | gust MPH | rain 1hr in | rain 24hr in | rain mn in | humidity % | barometer mb |
| 20260506073356 | 61 | 79 | 3.0 | 8.0 | 0.00 | 0.00 | 0.00 | 77 | 1010.7 |
| 20260506072853 | 61 | 8 | 4.0 | 7.0 | 0.00 | 0.00 | 0.00 | 77 | 1011.0 |
| 20260506072351 | 62 | 161 | 5.0 | 7.0 | 0.00 | 0.00 | 0.00 | 77 | 1010.9 |
| 20260506071848 | 62 | 252 | 3.0 | 8.0 | 0.00 | 0.00 | 0.00 | 77 | 1010.9 |
| 20260506071346 | 62 | 55 | 0.0 | 3.0 | 0.00 | 0.00 | 0.00 | 78 | 1010.7 |
| 20260506070843 | 62 | 134 | 2.0 | 6.0 | 0.00 | 0.00 | 0.00 | 78 | 1010.8 |
| 20260506070340 | 62 | 300 | 3.0 | 4.0 | 0.00 | 0.00 | 0.00 | 78 | 1010.7 |
| 20260506062317 | 64 | 143 | 2.0 | 9.0 | 0.00 | 0.00 | 0.00 | 79 | 1010.4 |
| 20260506061813 | 64 | 132 | 2.0 | 4.0 | 0.00 | 0.00 | 0.00 | 79 | 1010.4 |
| 20260506061310 | 64 | 266 | 2.0 | 3.0 | 0.00 | 0.00 | 0.00 | 78 | 1010.6 |
| 20260506060808 | 64 | 127 | 1.0 | 4.0 | 0.00 | 0.00 | 0.00 | 79 | 1010.7 |
| 20260506060306 | 64 | 53 | 5.0 | 7.0 | 0.00 | 0.00 | 0.00 | 79 | 1010.6 |
| 20260506051237 | 68 | 42 | 4.0 | 13.0 | 0.00 | 0.00 | 0.00 | 77 | 1010.1 |
| 20260506050735 | 69 | 80 | 3.0 | 7.0 | 0.00 | 0.00 | 0.00 | 77 | 1010.2 |
| 20260506050232 | 69 | 331 | 4.0 | 10.0 | 0.00 | 0.00 | 0.00 | 77 | 1010.0 |
| 20260506044723 | 70 | 226 | 2.0 | 8.0 | 0.00 | 0.00 | 0.00 | 77 | 1009.8 |
| 20260506044220 | 70 | 34 | 5.0 | 6.0 | 0.00 | 0.00 | 0.00 | 77 | 1009.8 |
| 20260506043718 | 70 | 313 | 4.0 | 6.0 | 0.00 | 0.00 | 0.00 | 77 | 1009.8 |
| 20260506043215 | 70 | 316 | 4.0 | 7.0 | 0.00 | 0.00 | 0.00 | 77 | 1009.5 |
| 20260506042714 | 71 | 112 | 6.0 | 11.0 | 0.00 | 0.00 | 0.00 | 76 | 1009.6 |
| 20260506042212 | 71 | 15 | 4.0 | 7.0 | 0.00 | 0.00 | 0.00 | 76 | 1009.7 |
| 20260506041710 | 71 | 136 | 4.0 | 8.0 | 0.00 | 0.00 | 0.00 | 76 | 1009.7 |
| 20260506041207 | 72 | 141 | 4.0 | 8.0 | 0.00 | 0.00 | 0.00 | 76 | 1009.4 |
| 20260506040704 | 72 | 342 | 4.0 | 9.0 | 0.00 | 0.00 | 0.00 | 76 | 1009.4 |
| 20260506040201 | 72 | 184 | 5.0 | 7.0 | 0.00 | 0.00 | 0.00 | 76 | 1009.5 |
| 20260506035658 | 73 | 166 | 2.0 | 4.0 | 0.00 | 0.00 | 0.00 | 77 | 1009.4 |
| 20260506035155 | 73 | 208 | 1.0 | 4.0 | 0.00 | 0.00 | 0.00 | 76 | 1009.3 |
| 20260506034651 | 73 | 283 | 2.0 | 3.0 | 0.00 | 0.00 | 0.00 | 76 | 1009.0 |
| 20260506034149 | 74 | 154 | 0.0 | 11.0 | 0.00 | 0.00 | 0.00 | 76 | 1009.0 |
| 20260506033646 | 74 | 10 | 5.0 | 10.0 | 0.00 | 0.00 | 0.00 | 75 | 1009.1 |
| 20260506033143 | 75 | 337 | 7.0 | 11.0 | 0.00 | 0.00 | 0.00 | 75 | 1009.2 |
| 20260506032640 | 75 | 99 | 2.0 | 9.0 | 0.00 | 0.00 | 0.00 | 74 | 1009.2 |
| 20260506032137 | 75 | 293 | 1.0 | 9.0 | 0.00 | 0.00 | 0.00 | 74 | 1009.0 |
| 20260506031634 | 75 | 41 | 4.0 | 9.0 | 0.00 | 0.00 | 0.00 | 74 | 1008.8 |
| 20260506031131 | 76 | 328 | 4.0 | 9.0 | 0.00 | 0.00 | 0.00 | 74 | 1008.8 |
| 20260506030629 | 76 | 89 | 2.0 | 8.0 | 0.00 | 0.00 | 0.00 | 74 | 1008.5 |
| 20260506030126 | 76 | 249 | 3.0 | 4.0 | 0.00 | 0.00 | 0.00 | 74 | 1008.5 |
| 20260506025623 | 77 | 139 | 1.0 | 6.0 | 0.00 | 0.00 | 0.00 | 74 | 1008.3 |
| 20260506025119 | 77 | 319 | 3.0 | 4.0 | 0.00 | 0.00 | 0.00 | 74 | 1008.0 |
| 20260506024617 | 79 | 221 | 2.0 | 2.0 | 0.00 | 0.00 | 0.00 | 81 | 1007.9 |
| 20260506024112 | 79 | 183 | 0.0 | 1.0 | 0.00 | 0.00 | 0.00 | 81 | 1007.5 |
| 20260506023609 | 79 | 193 | 0.0 | 2.0 | 0.00 | 0.00 | 0.00 | 81 | 1007.6 |
| 20260506023106 | 79 | 196 | 0.0 | 1.0 | 0.00 | 0.00 | 0.00 | 80 | 1007.3 |
| 20260506022604 | 79 | 191 | 0.0 | 0.0 | 0.00 | 0.00 | 0.00 | 80 | 1007.4 |
| 20260506022101 | 79 | 191 | 0.0 | 1.0 | 0.00 | 0.00 | 0.00 | 80 | 1007.4 |
| 20260506021559 | 79 | 217 | 0.0 | 1.0 | 0.00 | 0.00 | 0.00 | 80 | 1007.2 |
| 20260506021055 | 79 | 193 | 0.0 | 1.0 | 0.00 | 0.00 | 0.00 | 79 | 1006.9 |
| 20260506020553 | 79 | 194 | 1.0 | 2.0 | 0.00 | 0.00 | 0.00 | 79 | 1007.2 |
| 20260506020050 | 79 | 183 | 0.0 | 1.0 | 0.00 | 0.00 | 0.00 | 79 | 1007.3 |
| 20260506015548 | 79 | 202 | 0.0 | 0.0 | 0.00 | 0.00 | 0.00 | 79 | 1007.2 |
| 20260506015044 | 79 | 193 | 0.0 | 0.0 | 0.00 | 0.00 | 0.00 | 79 | 1007.0 |
| 20260506014542 | 79 | 192 | 0.0 | 1.0 | 0.00 | 0.00 | 0.00 | 79 | 1006.9 |
| 20260506014037 | 79 | 197 | 1.0 | 1.0 | 0.00 | 0.00 | 0.00 | 79 | 1006.9 |
| 20260506013536 | 79 | 209 | 0.0 | 1.0 | 0.00 | 0.00 | 0.00 | 79 | 1006.8 |
| 20260506013032 | 79 | 214 | 1.0 | 2.0 | 0.00 | 0.00 | 0.00 | 79 | 1006.8 |
| 20260506012528 | 80 | 191 | 1.0 | 2.0 | 0.00 | 0.00 | 0.00 | 79 | 1006.4 |
| 20260506012025 | 80 | 186 | 2.0 | 6.0 | 0.00 | 0.00 | 0.00 | 78 | 1006.1 |
| 20260506011523 | 80 | 181 | 1.0 | 3.0 | 0.00 | 0.00 | 0.00 | 78 | 1006.0 |
| 20260506011019 | 80 | 181 | 1.0 | 3.0 | 0.00 | 0.00 | 0.00 | 77 | 1006.3 |
| 20260506010513 | 80 | 191 | 4.0 | 4.0 | 0.00 | 0.00 | 0.00 | 77 | 1006.5 |
| 20260506010009 | 80 | 195 | 2.0 | 6.0 | 0.00 | 0.00 | 0.00 | 77 | 1006.4 |
| 20260506005506 | 81 | 194 | 3.0 | 6.0 | 0.00 | 0.00 | 0.00 | 76 | 1006.5 |
| 20260506005001 | 81 | 198 | 2.0 | 6.0 | 0.00 | 0.00 | 0.00 | 76 | 1006.6 |
| 20260506004500 | 81 | 219 | 3.0 | 6.0 | 0.00 | 0.00 | 0.00 | 76 | 1006.2 |
| 20260506003955 | 81 | 162 | 3.0 | 4.0 | 0.00 | 0.00 | 0.00 | 76 | 1006.4 |
| 20260506003452 | 81 | 203 | 1.0 | 8.0 | 0.00 | 0.00 | 0.00 | 75 | 1006.4 |
| 20260506002948 | 81 | 201 | 3.0 | 6.0 | 0.00 | 0.00 | 0.00 | 75 | 1006.4 |
| 20260506002445 | 82 | 196 | 3.0 | 6.0 | 0.00 | 0.00 | 0.00 | 74 | 1005.9 |
| 20260506001940 | 82 | 199 | 4.0 | 7.0 | 0.00 | 0.00 | 0.00 | 74 | 1006.1 |
| 20260506001437 | 82 | 105 | 5.0 | 10.0 | 0.00 | 0.00 | 0.00 | 74 | 1006.1 |
| 20260506000934 | 82 | 257 | 3.0 | 8.0 | 0.00 | 0.00 | 0.00 | 74 | 1006.0 |
| 20260506000432 | 82 | 183 | 4.0 | 7.0 | 0.00 | 0.00 | 0.00 | 74 | 1005.8 |
| 20260505235929 | 82 | 142 | 5.0 | 9.0 | 0.00 | 0.00 | 0.00 | 74 | 1005.8 |
| 20260505235427 | 82 | 220 | 3.0 | 6.0 | 0.00 | 0.00 | 0.00 | 73 | 1006.0 |
| 20260505234924 | 83 | 200 | 4.0 | 9.0 | 0.00 | 0.00 | 0.00 | 73 | 1006.1 |
| 20260505234421 | 83 | 252 | 5.0 | 10.0 | 0.00 | 0.00 | 0.00 | 73 | 1006.1 |
| 20260505233917 | 83 | 210 | 5.0 | 11.0 | 0.00 | 0.00 | 0.00 | 72 | 1005.9 |
| 20260505233415 | 84 | 165 | 5.0 | 7.0 | 0.00 | 0.00 | 0.00 | 72 | 1005.9 |
| 20260505232912 | 84 | 217 | 7.0 | 10.0 | 0.00 | 0.00 | 0.00 | 71 | 1005.8 |
| 20260505232410 | 84 | 232 | 6.0 | 8.0 | 0.00 | 0.00 | 0.00 | 71 | 1006.0 |
| 20260505231907 | 84 | 135 | 4.0 | 10.0 | 0.00 | 0.00 | 0.00 | 71 | 1006.0 |
| 20260505231405 | 84 | 224 | 4.0 | 9.0 | 0.00 | 0.00 | 0.00 | 71 | 1006.0 |
| 20260505230903 | 85 | 180 | 6.0 | 11.0 | 0.00 | 0.00 | 0.00 | 70 | 1005.6 |
| 20260505230400 | 86 | 233 | 7.0 | 9.0 | 0.00 | 0.00 | 0.00 | 68 | 1005.6 |
| 20260505225856 | 86 | 225 | 3.0 | 7.0 | 0.00 | 0.00 | 0.00 | 68 | 1005.7 |
| 20260505225354 | 86 | 212 | 4.0 | 9.0 | 0.00 | 0.00 | 0.00 | 68 | 1005.8 |
| 20260505224848 | 86 | 219 | 5.0 | 9.0 | 0.00 | 0.00 | 0.00 | 67 | 1005.7 |
| 20260505224346 | 87 | 204 | 7.0 | 11.0 | 0.00 | 0.00 | 0.00 | 66 | 1005.6 |
| 20260505223843 | 87 | 168 | 4.0 | 8.0 | 0.00 | 0.00 | 0.00 | 66 | 1005.6 |
| 20260505223340 | 86 | 164 | 6.0 | 9.0 | 0.00 | 0.00 | 0.00 | 67 | 1005.5 |
| 20260505222836 | 87 | 211 | 6.0 | 10.0 | 0.00 | 0.00 | 0.00 | 67 | 1005.5 |
| 20260505222332 | 87 | 172 | 3.0 | 6.0 | 0.00 | 0.00 | 0.00 | 66 | 1005.4 |
| 20260505221830 | 88 | 220 | 6.0 | 8.0 | 0.00 | 0.00 | 0.00 | 64 | 1005.4 |
| 20260505221326 | 87 | 225 | 4.0 | 7.0 | 0.00 | 0.00 | 0.00 | 66 | 1005.5 |
| 20260505220823 | 87 | 142 | 4.0 | 8.0 | 0.00 | 0.00 | 0.00 | 65 | 1005.6 |
| 20260505220320 | 88 | 197 | 3.0 | 10.0 | 0.00 | 0.00 | 0.00 | 65 | 1005.5 |
| 20260505215818 | 87 | 235 | 5.0 | 8.0 | 0.00 | 0.00 | 0.00 | 66 | 1005.4 |
| 20260505215316 | 88 | 204 | 4.0 | 9.0 | 0.00 | 0.00 | 0.00 | 64 | 1005.6 |
| 20260505214814 | 86 | 224 | 2.0 | 10.0 | 0.00 | 0.00 | 0.00 | 66 | 1005.8 |
| 20260505214311 | 87 | 161 | 4.0 | 9.0 | 0.00 | 0.00 | 0.00 | 66 | 1005.6 |
| 20260505213808 | 87 | 198 | 4.0 | 11.0 | 0.00 | 0.00 | 0.00 | 65 | 1005.9 |
| 20260505213306 | 87 | 206 | 4.0 | 8.0 | 0.00 | 0.00 | 0.00 | 66 | 1005.7 |
| 20260505212801 | 87 | 212 | 4.0 | 8.0 | 0.00 | 0.00 | 0.00 | 66 | 1005.8 |
| 20260505212259 | 87 | 158 | 2.0 | 8.0 | 0.00 | 0.00 | 0.00 | 66 | 1005.8 |
| 20260505211755 | 88 | 190 | 4.0 | 8.0 | 0.00 | 0.00 | 0.00 | 65 | 1006.0 |
| 20260505211253 | 87 | 192 | 4.0 | 6.0 | 0.00 | 0.00 | 0.00 | 66 | 1005.8 |
| 20260505210749 | 87 | 173 | 3.0 | 9.0 | 0.00 | 0.00 | 0.00 | 66 | 1005.9 |
| 20260505210246 | 87 | 156 | 4.0 | 9.0 | 0.00 | 0.00 | 0.00 | 65 | 1006.0 |
| 20260505205743 | 87 | 223 | 9.0 | 13.0 | 0.00 | 0.00 | 0.00 | 65 | 1006.1 |
| 20260505205242 | 88 | 180 | 3.0 | 7.0 | 0.00 | 0.00 | 0.00 | 64 | 1005.9 |
| 20260505204738 | 87 | 169 | 5.0 | 9.0 | 0.00 | 0.00 | 0.00 | 64 | 1006.2 |
| 20260505204236 | 88 | 210 | 4.0 | 10.0 | 0.00 | 0.00 | 0.00 | 64 | 1006.2 |
| 20260505203733 | 88 | 221 | 6.0 | 9.0 | 0.00 | 0.00 | 0.00 | 63 | 1006.2 |
| 20260505203230 | 87 | 350 | 9.0 | 13.0 | 0.00 | 0.00 | 0.00 | 64 | 1006.3 |
| 20260505202725 | 87 | 222 | 2.0 | 7.0 | 0.00 | 0.00 | 0.00 | 66 | 1006.3 |
| 20260505202221 | 88 | 193 | 7.0 | 10.0 | 0.00 | 0.00 | 0.00 | 65 | 1006.4 |
| 20260505201718 | 88 | 291 | 4.0 | 8.0 | 0.00 | 0.00 | 0.00 | 64 | 1006.4 |
| 20260505201216 | 87 | 197 | 6.0 | 10.0 | 0.00 | 0.00 | 0.00 | 64 | 1006.3 |
| 20260505200714 | 87 | 161 | 4.0 | 14.0 | 0.00 | 0.00 | 0.00 | 64 | 1006.3 |
| 20260505200210 | 87 | 201 | 3.0 | 7.0 | 0.00 | 0.00 | 0.00 | 65 | 1006.4 |
| 20260505195706 | 87 | 198 | 4.0 | 14.0 | 0.00 | 0.00 | 0.00 | 65 | 1006.3 |
| 20260505195204 | 87 | 165 | 8.0 | 9.0 | 0.00 | 0.00 | 0.00 | 64 | 1006.5 |
| 20260505194701 | 86 | 158 | 4.0 | 10.0 | 0.00 | 0.00 | 0.00 | 65 | 1006.6 |
| 20260505194157 | 86 | 210 | 6.0 | 13.0 | 0.00 | 0.00 | 0.00 | 65 | 1006.4 |
| 20260505193654 | 87 | 152 | 6.0 | 9.0 | 0.00 | 0.00 | 0.00 | 64 | 1006.3 |
| 20260505193151 | 85 | 209 | 8.0 | 14.0 | 0.00 | 0.00 | 0.00 | 65 | 1006.4 |
| 20260505192650 | 85 | 205 | 5.0 | 17.0 | 0.00 | 0.00 | 0.00 | 66 | 1006.5 |
| 20260505192147 | 85 | 24 | 6.0 | 11.0 | 0.00 | 0.00 | 0.00 | 66 | 1006.8 |
| 20260505191645 | 85 | 171 | 7.0 | 14.0 | 0.00 | 0.00 | 0.00 | 66 | 1006.5 |
| 20260505191143 | 85 | 182 | 6.0 | 16.0 | 0.00 | 0.00 | 0.00 | 66 | 1006.8 |
| 20260505190639 | 84 | 229 | 9.0 | 15.0 | 0.00 | 0.00 | 0.00 | 68 | 1006.8 |
| 20260505190138 | 84 | 191 | 7.0 | 13.0 | 0.00 | 0.00 | 0.00 | 67 | 1006.9 |
| 20260505185635 | 84 | 198 | 8.0 | 11.0 | 0.00 | 0.00 | 0.00 | 68 | 1006.9 |
| 20260505185131 | 83 | 165 | 5.0 | 10.0 | 0.00 | 0.00 | 0.00 | 68 | 1006.9 |
| 20260505184628 | 83 | 154 | 3.0 | 13.0 | 0.00 | 0.00 | 0.00 | 69 | 1006.9 |
| 20260505184125 | 83 | 220 | 9.0 | 15.0 | 0.00 | 0.00 | 0.00 | 68 | 1007.1 |
| 20260505183622 | 84 | 307 | 3.0 | 8.0 | 0.00 | 0.00 | 0.00 | 68 | 1007.0 |
| 20260505183119 | 83 | 205 | 7.0 | 10.0 | 0.00 | 0.00 | 0.00 | 69 | 1007.0 |
| 20260505182615 | 83 | 330 | 8.0 | 13.0 | 0.00 | 0.00 | 0.00 | 68 | 1007.0 |
| 20260505182112 | 83 | 250 | 6.0 | 10.0 | 0.00 | 0.00 | 0.00 | 69 | 1007.1 |
| 20260505181609 | 82 | 169 | 9.0 | 14.0 | 0.00 | 0.00 | 0.00 | 70 | 1006.9 |
| 20260505181106 | 82 | 206 | 4.0 | 10.0 | 0.00 | 0.00 | 0.00 | 70 | 1007.2 |
| 20260505180602 | 82 | 213 | 5.0 | 15.0 | 0.00 | 0.00 | 0.00 | 69 | 1007.1 |
| 20260505180100 | 82 | 198 | 7.0 | 13.0 | 0.00 | 0.00 | 0.00 | 70 | 1007.2 |
| 20260505175555 | 82 | 205 | 4.0 | 10.0 | 0.00 | 0.00 | 0.00 | 71 | 1007.1 |
| 20260505175052 | 82 | 205 | 5.0 | 15.0 | 0.00 | 0.00 | 0.00 | 71 | 1007.0 |
| 20260505174549 | 81 | 190 | 8.0 | 10.0 | 0.00 | 0.00 | 0.00 | 71 | 1007.0 |
| 20260505174045 | 81 | 208 | 6.0 | 11.0 | 0.00 | 0.00 | 0.00 | 71 | 1007.2 |
| 20260505173542 | 82 | 223 | 6.0 | 9.0 | 0.00 | 0.00 | 0.00 | 70 | 1007.1 |
| 20260505173039 | 81 | 199 | 7.0 | 11.0 | 0.00 | 0.00 | 0.00 | 71 | 1007.2 |
| 20260505172537 | 82 | 217 | 4.0 | 11.0 | 0.00 | 0.00 | 0.00 | 71 | 1007.1 |
| 20260505172033 | 82 | 192 | 12.0 | 16.0 | 0.00 | 0.00 | 0.00 | 69 | 1007.2 |
| 20260505171528 | 81 | 215 | 5.0 | 15.0 | 0.00 | 0.00 | 0.00 | 71 | 1007.4 |
| 20260505171025 | 81 | 104 | 3.0 | 10.0 | 0.00 | 0.00 | 0.00 | 70 | 1007.1 |
| 20260505170522 | 81 | 231 | 10.0 | 15.0 | 0.00 | 0.00 | 0.00 | 71 | 1007.1 |
| 20260505170018 | 82 | 211 | 12.0 | 16.0 | 0.00 | 0.00 | 0.00 | 70 | 1007.3 |
| 20260505165514 | 81 | 266 | 4.0 | 13.0 | 0.00 | 0.00 | 0.00 | 71 | 1007.2 |
| 20260505165009 | 80 | 180 | 5.0 | 18.0 | 0.00 | 0.00 | 0.00 | 71 | 1006.8 |
| 20260505164506 | 80 | 178 | 5.0 | 13.0 | 0.00 | 0.00 | 0.00 | 73 | 1007.0 |
| 20260505164004 | 79 | 190 | 8.0 | 13.0 | 0.00 | 0.00 | 0.00 | 72 | 1007.2 |
| 20260505163502 | 79 | 230 | 9.0 | 14.0 | 0.00 | 0.00 | 0.00 | 74 | 1007.1 |
| 20260505163002 | 80 | 199 | 8.0 | 14.0 | 0.00 | 0.00 | 0.00 | 72 | 1006.9 |
| 20260505162456 | 79 | 234 | 5.0 | 13.0 | 0.00 | 0.00 | 0.00 | 73 | 1007.1 |
| 20260505161953 | 79 | 196 | 6.0 | 15.0 | 0.00 | 0.00 | 0.00 | 74 | 1007.1 |
| 20260505161450 | 78 | 157 | 8.0 | 18.0 | 0.00 | 0.00 | 0.00 | 75 | 1007.3 |
| 20260505160947 | 79 | 315 | 8.0 | 16.0 | 0.00 | 0.00 | 0.00 | 74 | 1007.1 |
| 20260505160446 | 79 | 266 | 7.0 | 11.0 | 0.00 | 0.00 | 0.00 | 74 | 1007.0 |
| 20260505152922 | 76 | 211 | 10.0 | 15.0 | 0.00 | 0.00 | 0.00 | 78 | 1007.3 |
| 20260505152419 | 77 | 231 | 9.0 | 15.0 | 0.00 | 0.00 | 0.00 | 78 | 1007.1 |
| 20260505151913 | 76 | 148 | 9.0 | 16.0 | 0.00 | 0.00 | 0.00 | 78 | 1007.1 |
| 20260505151410 | 76 | 201 | 3.0 | 15.0 | 0.00 | 0.00 | 0.00 | 80 | 1007.1 |
| 20260505150907 | 75 | 223 | 6.0 | 13.0 | 0.00 | 0.00 | 0.00 | 80 | 1007.3 |
| 20260505150404 | 75 | 214 | 8.0 | 14.0 | 0.00 | 0.00 | 0.00 | 81 | 1007.4 |
| 20260505140334 | 73 | 146 | 2.0 | 7.0 | 0.00 | 0.00 | 0.00 | 84 | 1007.4 |
| 20260505130257 | 72 | 200 | 4.0 | 10.0 | 0.00 | 0.00 | 0.00 | 86 | 1006.8 |
| 20260505124748 | 71 | 198 | 1.0 | 7.0 | 0.00 | 0.00 | 0.00 | 87 | 1006.7 |
| 20260505124245 | 71 | 141 | 4.0 | 7.0 | 0.00 | 0.00 | 0.00 | 87 | 1006.6 |
| 20260505123740 | 71 | 213 | 4.0 | 9.0 | 0.00 | 0.00 | 0.00 | 87 | 1006.4 |
| 20260505123237 | 71 | 143 | 4.0 | 8.0 | 0.00 | 0.00 | 0.00 | 87 | 1006.2 |
| 20260505122734 | 71 | 233 | 4.0 | 8.0 | 0.00 | 0.00 | 0.00 | 87 | 1006.2 |
| 20260505122231 | 71 | 299 | 6.0 | 8.0 | 0.00 | 0.00 | 0.00 | 87 | 1006.3 |
| 20260505121727 | 71 | 121 | 4.0 | 8.0 | 0.00 | 0.00 | 0.00 | 87 | 1006.5 |
| 20260505121224 | 71 | 174 | 3.0 | 10.0 | 0.00 | 0.00 | 0.00 | 87 | 1006.4 |
| 20260505120721 | 71 | 222 | 6.0 | 14.0 | 0.00 | 0.00 | 0.00 | 87 | 1006.3 |
| 20260505120217 | 71 | 194 | 3.0 | 8.0 | 0.00 | 0.00 | 0.00 | 87 | 1006.2 |
| 20260505115715 | 71 | 246 | 4.0 | 8.0 | 0.00 | 0.00 | 0.00 | 87 | 1006.1 |
| 20260505115213 | 71 | 216 | 3.0 | 8.0 | 0.00 | 0.00 | 0.00 | 87 | 1006.3 |
| 20260505114710 | 71 | 217 | 4.0 | 8.0 | 0.00 | 0.00 | 0.00 | 87 | 1006.5 |
| 20260505114206 | 71 | 229 | 5.0 | 11.0 | 0.00 | 0.00 | 0.00 | 87 | 1006.4 |
| 20260505113703 | 71 | 205 | 2.0 | 8.0 | 0.00 | 0.00 | 0.00 | 87 | 1006.2 |
| 20260505113159 | 71 | 221 | 3.0 | 11.0 | 0.00 | 0.00 | 0.00 | 87 | 1006.3 |
| 20260505112656 | 71 | 212 | 2.0 | 8.0 | 0.00 | 0.00 | 0.00 | 87 | 1006.1 |
| 20260505112154 | 71 | 219 | 6.0 | 8.0 | 0.00 | 0.00 | 0.00 | 87 | 1006.3 |
| 20260505111653 | 71 | 207 | 5.0 | 8.0 | 0.00 | 0.00 | 0.00 | 87 | 1006.4 |
| 20260505111149 | 71 | 221 | 4.0 | 13.0 | 0.00 | 0.00 | 0.00 | 87 | 1006.1 |
| 20260505110645 | 71 | 205 | 6.0 | 14.0 | 0.00 | 0.00 | 0.00 | 87 | 1005.9 |
| 20260505110143 | 71 | 194 | 3.0 | 8.0 | 0.00 | 0.00 | 0.00 | 87 | 1005.8 |
| 20260505102119 | 71 | 309 | 4.0 | 7.0 | 0.00 | 0.00 | 0.00 | 86 | 1006.1 |
| 20260505101617 | 71 | 121 | 6.0 | 10.0 | 0.00 | 0.00 | 0.00 | 86 | 1006.2 |
| 20260505101113 | 71 | 178 | 5.0 | 10.0 | 0.00 | 0.00 | 0.00 | 86 | 1006.3 |
| 20260505100609 | 71 | 186 | 5.0 | 11.0 | 0.00 | 0.00 | 0.00 | 85 | 1006.4 |
| 20260505100107 | 71 | 126 | 4.0 | 8.0 | 0.00 | 0.00 | 0.00 | 85 | 1006.4 |
| 20260505095603 | 71 | 188 | 4.0 | 11.0 | 0.00 | 0.00 | 0.00 | 85 | 1006.5 |
| 20260505095059 | 71 | 125 | 7.0 | 11.0 | 0.00 | 0.00 | 0.00 | 85 | 1006.6 |
| 20260505094556 | 71 | 93 | 3.0 | 11.0 | 0.00 | 0.00 | 0.00 | 85 | 1006.6 |
| 20260505094052 | 71 | 236 | 7.0 | 14.0 | 0.00 | 0.00 | 0.00 | 85 | 1006.6 |
| 20260505093548 | 71 | 220 | 9.0 | 16.0 | 0.00 | 0.00 | 0.00 | 85 | 1006.6 |
| 20260505093046 | 71 | 290 | 5.0 | 10.0 | 0.00 | 0.00 | 0.00 | 86 | 1006.5 |
| 20260505092543 | 71 | 216 | 6.0 | 11.0 | 0.00 | 0.00 | 0.00 | 86 | 1006.7 |
| 20260505092042 | 71 | 190 | 7.0 | 13.0 | 0.00 | 0.00 | 0.00 | 86 | 1006.5 |
| 20260505091538 | 71 | 285 | 5.0 | 14.0 | 0.00 | 0.00 | 0.00 | 86 | 1006.6 |
| 20260505091037 | 71 | 228 | 5.0 | 14.0 | 0.00 | 0.00 | 0.00 | 85 | 1006.5 |
| 20260505090534 | 71 | 132 | 5.0 | 11.0 | 0.00 | 0.00 | 0.00 | 86 | 1006.5 |
| 20260505090032 | 71 | 215 | 4.0 | 8.0 | 0.00 | 0.00 | 0.00 | 86 | 1006.5 |
| 20260505085529 | 71 | 162 | 8.0 | 15.0 | 0.00 | 0.00 | 0.00 | 86 | 1006.4 |
| 20260505085027 | 71 | 216 | 5.0 | 11.0 | 0.00 | 0.00 | 0.00 | 86 | 1006.5 |
| 20260505084525 | 71 | 227 | 8.0 | 10.0 | 0.00 | 0.00 | 0.00 | 86 | 1006.6 |
| 20260505084023 | 71 | 196 | 8.0 | 14.0 | 0.00 | 0.00 | 0.00 | 86 | 1006.5 |
| 20260505083520 | 71 | 155 | 7.0 | 10.0 | 0.00 | 0.00 | 0.00 | 86 | 1006.6 |
| 20260505083017 | 71 | 167 | 5.0 | 13.0 | 0.00 | 0.00 | 0.00 | 86 | 1006.7 |
| 20260505082512 | 71 | 223 | 5.0 | 8.0 | 0.00 | 0.00 | 0.00 | 86 | 1006.7 |
| 20260505082009 | 71 | 105 | 3.0 | 8.0 | 0.00 | 0.00 | 0.00 | 86 | 1006.5 |
| 20260505081506 | 71 | 200 | 7.0 | 13.0 | 0.00 | 0.00 | 0.00 | 86 | 1006.6 |
| 20260505081002 | 71 | 243 | 4.0 | 13.0 | 0.00 | 0.00 | 0.00 | 86 | 1006.5 |
| 20260505080459 | 71 | 142 | 5.0 | 11.0 | 0.00 | 0.00 | 0.00 | 85 | 1006.8 |